SM2NLD Weather Reports


time (UTC)temp
C
wind
direction
speed
KPH
gust
KPH
rain 1hr
cm
rain 24hr
cm
rain mn
cm
humidity
%
barometer
mb
20260503072703 2 320 9.7 24.1 0.00 0.00 0.00 11 996.9
20260503072505 1 325 3.2 24.1 0.00 0.00 0.00 11 996.9
20260503072006 1 293 8.0 24.1 0.00 0.00 0.00 11 996.9
20260503071803 2 289 8.0 16.1 0.00 0.00 0.00 11 996.9
20260503071506 2 259 4.8 12.9 0.00 0.00 0.00 11 996.9
20260503071005 2 310 4.8 12.9 0.00 0.00 0.00 11 996.8
20260503070903 2 314 6.4 12.9 0.00 0.00 0.00 11 996.9
20260503070712 2 317 6.4 12.9 0.00 0.00 0.00 11 996.9
20260503070506 2 319 6.4 12.9 0.00 0.00 0.00 11 996.8
20260503055005 1 283 3.2 12.9 0.00 0.00 0.00 11 996.4
20260503054711 1 300 4.8 14.5 0.00 0.00 0.00 11 996.2
20260503054505 1 313 4.8 14.5 0.00 0.00 0.00 11 996.3
20260503054503 1 309 4.8 14.5 0.00 0.00 0.00 11 996.2
20260503054005 0 317 6.4 14.5 0.00 0.00 0.00 11 996.2
20260503053603 0 313 6.4 14.5 0.00 0.00 0.00 11 996.3
20260503053505 0 304 6.4 14.5 0.00 0.00 0.00 11 996.3
20260503053005 0 304 8.0 17.7 0.00 0.00 0.00 11 996.3
20260503052711 0 277 8.0 17.7 0.00 0.00 0.00 11 996.3
20260503052703 0 277 8.0 17.7 0.00 0.00 0.00 11 996.3
20260503052505 0 264 9.7 17.7 0.00 0.00 0.00 11 996.4
20260503052005 0 245 3.2 14.5 0.00 0.00 0.00 11 996.3
20260503051803 0 261 3.2 14.5 0.00 0.00 0.00 11 996.3
20260503051505 0 275 3.2 11.3 0.00 0.00 0.00 11 996.4
20260503051005 0 274 3.2 12.9 0.00 0.00 0.00 11 996.4
20260503050903 0 274 4.8 12.9 0.00 0.00 0.00 11 996.5
20260503050711 0 269 6.4 12.9 0.00 0.00 0.00 11 996.4
20260503050505 0 261 3.2 12.9 0.00 0.00 0.00 11 996.4
20260503050006 0 254 8.0 12.9 0.00 0.00 0.00 11 996.4
20260503050003 0 256 6.4 12.9 0.00 0.00 0.00 11 996.4
20260503045505 0 264 3.2 12.9 0.00 0.00 0.00 11 996.4
20260503045403 0 266 6.4 12.9 0.00 0.00 0.00 11 996.5
20260503045005 0 274 3.2 12.9 0.00 0.00 0.00 11 996.5
20260503044711 0 264 4.8 12.9 0.00 0.00 0.00 11 996.4
20260503044505 0 258 6.4 12.9 0.00 0.00 0.00 11 996.4
20260503044503 0 265 6.4 12.9 0.00 0.00 0.00 11 996.5
20260503044005 0 244 1.6 12.9 0.00 0.00 0.00 11 996.4
20260503043603 0 265 4.8 12.9 0.00 0.00 0.00 11 996.4
20260503043506 0 262 3.2 12.9 0.00 0.00 0.00 11 996.2
20260503043006 0 307 6.4 14.5 0.00 0.00 0.00 11 996.2
20260503042712 0 310 3.2 14.5 0.00 0.00 0.00 11 996.3
20260503042703 0 310 3.2 14.5 0.00 0.00 0.00 11 996.3
20260503042506 0 288 4.8 14.5 0.00 0.00 0.00 11 996.3
20260503042006 0 261 4.8 14.5 0.00 0.00 0.00 11 996.0
20260503041803 0 253 3.2 14.5 0.00 0.00 0.00 11 996.0
20260503041506 0 290 6.4 17.7 0.00 0.00 0.00 11 996.0
20260503041006 0 347 6.4 17.7 0.00 0.00 0.00 11 996.0
20260503040903 0 351 3.2 17.7 0.00 0.00 0.00 11 996.0
20260503040712 0 354 9.7 17.7 0.00 0.00 0.00 11 996.0
20260503040506 0 351 11.3 17.7 0.00 0.00 0.00 11 996.1
20260503040006 0 319 11.3 19.3 0.00 0.00 0.00 11 996.1
20260503040003 0 319 11.3 19.3 0.00 0.00 0.00 11 996.1
20260503035506 0 302 9.7 19.3 0.00 0.00 0.00 11 995.9
20260503035403 0 307 9.7 19.3 0.00 0.00 0.00 11 995.9
20260503035006 0 295 6.4 17.7 0.00 0.00 0.00 11 995.8
20260503034712 0 310 8.0 17.7 0.00 0.00 0.00 11 995.9
20260503034503 0 295 8.0 17.7 0.00 0.00 0.00 11 995.9
20260503034006 0 295 4.8 19.3 0.00 0.00 0.00 11 995.8
20260503033603 0 285 6.4 19.3 0.00 0.00 0.00 11 995.9
20260503033506 0 289 4.8 19.3 0.00 0.00 0.00 11 995.9
20260503033006 0 277 9.7 19.3 0.00 0.00 0.00 11 995.9
20260503032712 0 270 4.8 17.7 0.00 0.00 0.00 11 995.8
20260503032703 0 270 4.8 17.7 0.00 0.00 0.00 11 995.8
20260503032506 0 281 4.8 17.7 0.00 0.00 0.00 11 995.7
20260503032006 0 298 3.2 17.7 0.00 0.00 0.00 11 995.8
20260503031803 0 308 9.7 17.7 0.00 0.00 0.00 11 995.8
20260503031506 0 294 6.4 17.7 0.00 0.00 0.00 11 995.8
20260503031006 0 278 8.0 12.9 0.00 0.00 0.00 11 995.8
20260503030903 0 277 6.4 14.5 0.00 0.00 0.00 11 995.8
20260503030712 0 282 6.4 14.5 0.00 0.00 0.00 11 995.9
20260503030506 0 287 6.4 14.5 0.00 0.00 0.00 11 995.9
20260503030006 0 295 8.0 17.7 0.00 0.00 0.00 11 995.8
20260503030003 0 292 6.4 16.1 0.00 0.00 0.00 11 995.8
20260503025506 0 292 4.8 17.7 0.00 0.00 0.00 11 995.9
20260503025403 0 296 4.8 17.7 0.00 0.00 0.00 11 995.9
20260503025006 0 315 6.4 19.3 0.00 0.00 0.00 11 995.8
20260503024712 0 318 9.7 22.5 0.00 0.00 0.00 11 995.9
20260503024506 0 317 6.4 24.1 0.00 0.00 0.00 11 995.9
20260503024503 0 314 8.0 24.1 0.00 0.00 0.00 11 995.8
20260503024006 0 307 6.4 24.1 0.00 0.00 0.00 11 995.9
20260503023603 0 310 14.5 24.1 0.00 0.00 0.00 11 995.8
20260503023505 0 310 6.4 24.1 0.00 0.00 0.00 11 995.8
20260503023005 0 308 6.4 24.1 0.00 0.00 0.00 11 995.7
20260503022711 0 305 9.7 24.1 0.00 0.00 0.00 11 995.9
20260503022703 0 305 9.7 24.1 0.00 0.00 0.00 11 995.9
20260503022505 0 302 12.9 24.1 0.00 0.00 0.00 11 995.7
20260503022005 0 299 9.7 22.5 0.00 0.00 0.00 11 995.7
20260503021803 0 290 6.4 22.5 0.00 0.00 0.00 11 995.6
20260503021505 0 285 6.4 22.5 0.00 0.00 0.00 11 995.7
20260503021005 0 268 8.0 20.9 0.00 0.00 0.00 11 995.5
20260503020903 0 266 11.3 20.9 0.00 0.00 0.00 11 995.5
20260503020711 0 274 6.4 14.5 0.00 0.00 0.00 11 995.7
20260503020505 0 274 6.4 14.5 0.00 0.00 0.00 11 995.5
20260503020005 0 284 6.4 17.7 0.00 0.00 0.00 11 995.5
20260503020003 0 283 6.4 17.7 0.00 0.00 0.00 11 995.5
20260503015505 0 290 4.8 19.3 0.00 0.00 0.00 11 995.4
20260503015403 0 293 6.4 19.3 0.00 0.00 0.00 11 995.3
20260503015005 0 279 3.2 19.3 0.00 0.00 0.00 11 995.4
20260503014711 0 270 8.0 17.7 0.00 0.00 0.00 11 995.4
20260503014505 0 252 4.8 17.7 0.00 0.00 0.00 11 995.3
20260503014503 0 258 6.4 17.7 0.00 0.00 0.00 11 995.3
20260503014005 -1 237 8.0 17.7 0.00 0.00 0.00 11 995.3
20260503013603 -1 214 0.0 6.4 0.00 0.00 0.00 11 995.3
20260503013505 -1 214 1.6 6.4 0.00 0.00 0.00 11 995.3
20260503013005 -1 210 3.2 6.4 0.00 0.00 0.00 11 995.2
20260503012713 -1 225 0.0 4.8 0.00 0.00 0.00 11 995.4
20260503012703 -1 225 0.0 4.8 0.00 0.00 0.00 11 995.4
20260503012505 -1 229 1.6 4.8 0.00 0.00 0.00 11 995.4
20260503012005 0 242 1.6 4.8 0.00 0.00 0.00 11 995.3
20260503011803 -1 249 3.2 4.8 0.00 0.00 0.00 11 995.4
20260503011505 -1 262 3.2 4.8 0.00 0.00 0.00 11 995.2
20260503011007 -1 270 1.6 4.8 0.00 0.00 0.00 11 995.2
20260503010903 -1 270 0.0 3.2 0.00 0.00 0.00 11 995.4
20260503010713 -1 252 0.0 3.2 0.00 0.00 0.00 11 995.3
20260503010507 -1 233 0.0 3.2 0.00 0.00 0.00 11 995.3
20260503010005 -1 309 0.0 6.4 0.00 0.00 0.00 11 995.1
20260503010003 -1 299 0.0 6.4 0.00 0.00 0.00 11 995.2
20260503005403 -1 17 3.2 6.4 0.00 0.00 0.00 11 995.1
20260503005351 -1 45 3.2 6.4 0.00 0.00 0.00 11 995.2
20260503004851 -1 148 1.6 3.2 0.00 0.00 0.00 11 995.2
20260503004713 -1 158 0.0 3.2 0.00 0.00 0.00 11 995.1
20260503004503 -1 179 0.0 3.2 0.00 0.00 0.00 11 995.1
20260503004351 -1 205 1.6 3.2 0.00 0.00 0.00 11 995.0
20260503003852 -1 217 0.0 3.2 0.00 0.00 0.00 11 995.0
20260503003603 -1 211 0.0 4.8 0.00 0.00 0.00 11 995.0
20260503003351 -1 213 0.0 4.8 0.00 0.00 0.00 11 995.1
20260503002851 -1 223 1.6 6.4 0.00 0.00 0.00 11 995.1
20260503002713 -1 227 3.2 6.4 0.00 0.00 0.00 11 995.1
20260503002703 -1 227 3.2 6.4 0.00 0.00 0.00 11 995.1
20260503002351 -1 221 3.2 6.4 0.00 0.00 0.00 11 995.1
20260503001851 -1 210 3.2 6.4 0.00 0.00 0.00 11 995.0
20260503001803 -1 209 3.2 6.4 0.00 0.00 0.00 11 995.0
20260503001351 -1 219 3.2 6.4 0.00 0.00 0.00 11 995.0
20260503000903 -1 224 1.6 6.4 0.00 0.00 0.00 11 995.0
20260503000851 -1 224 0.0 6.4 0.00 0.00 0.00 11 995.0
20260503000713 -1 224 1.6 8.0 0.00 0.00 0.00 11 994.9
20260503000351 -1 211 1.6 8.0 0.00 0.00 0.00 11 994.9
20260503000003 -1 212 1.6 8.0 0.00 0.00 0.00 11 994.8
20260502235851 -1 212 4.8 8.0 0.00 0.00 0.00 11 994.9
20260502235403 0 211 1.6 8.0 0.00 0.00 0.00 11 994.9
20260502235351 0 211 3.2 8.0 0.00 0.00 0.00 11 994.9
20260502234851 0 196 3.2 6.4 0.00 0.00 0.00 11 994.7
20260502234713 0 194 1.6 6.4 0.00 0.00 0.00 11 994.9
20260502234503 0 195 1.6 11.3 0.00 0.00 0.00 11 994.9
20260502234351 0 201 3.2 11.3 0.00 0.00 0.00 11 994.9
20260502233851 0 203 3.2 11.3 0.00 0.00 0.00 11 994.9
20260502233603 0 207 4.8 11.3 0.00 0.00 0.00 11 994.7
20260502233351 0 204 3.2 9.7 0.00 0.00 0.00 11 994.9
20260502232851 0 204 3.2 8.0 0.00 0.00 0.00 11 995.0
20260502232713 0 208 3.2 8.0 0.00 0.00 0.00 11 995.0
20260502232703 0 208 3.2 8.0 0.00 0.00 0.00 11 995.0
20260502232351 0 210 1.6 9.7 0.00 0.00 0.00 11 994.9
20260502231851 0 209 1.6 9.7 0.00 0.00 0.00 11 995.0
20260502231803 0 209 1.6 9.7 0.00 0.00 0.00 11 995.0
20260502231351 0 193 3.2 8.0 0.00 0.00 0.00 11 995.0
20260502230903 0 180 3.2 8.0 0.00 0.00 0.00 11 995.0
20260502230852 0 184 6.4 8.0 0.00 0.00 0.00 11 995.0
20260502230712 0 189 3.2 8.0 0.00 0.00 0.00 11 995.0
20260502230351 0 193 3.2 11.3 0.00 0.00 0.00 11 994.9
20260502230003 0 205 3.2 11.3 0.00 0.00 0.00 11 995.0
20260502225851 0 203 4.8 11.3 0.00 0.00 0.00 11 995.1
20260502225403 0 207 3.2 11.3 0.00 0.00 0.00 11 994.9
20260502225351 0 210 4.8 11.3 0.00 0.00 0.00 11 995.1
20260502224851 0 213 4.8 12.9 0.00 0.00 0.00 11 995.1
20260502224713 0 214 3.2 12.9 0.00 0.00 0.00 11 995.0
20260502224503 0 216 3.2 12.9 0.00 0.00 0.00 11 995.0
20260502224351 0 215 3.2 12.9 0.00 0.00 0.00 11 994.9
20260502223851 0 218 4.8 8.0 0.00 0.00 0.00 11 995.2
20260502223603 0 219 3.2 8.0 0.00 0.00 0.00 11 995.1
20260502223351 0 216 3.2 8.0 0.00 0.00 0.00 11 995.2
20260502222851 0 208 3.2 8.0 0.00 0.00 0.00 11 995.1
20260502222713 0 207 1.6 8.0 0.00 0.00 0.00 11 995.3
20260502222703 0 207 1.6 8.0 0.00 0.00 0.00 11 995.3
20260502222351 0 203 1.6 8.0 0.00 0.00 0.00 11 995.2
20260502221851 0 203 3.2 6.4 0.00 0.00 0.00 11 995.2
20260502221803 0 203 3.2 6.4 0.00 0.00 0.00 11 995.2
20260502221351 0 218 3.2 6.4 0.00 0.00 0.00 11 995.3
20260502220903 0 223 0.0 6.4 0.00 0.00 0.00 11 995.2
20260502220851 0 224 1.6 6.4 0.00 0.00 0.00 11 995.1
20260502220712 0 228 3.2 6.4 0.00 0.00 0.00 11 995.1
20260502220351 0 220 3.2 6.4 0.00 0.00 0.00 11 995.1
20260502220003 0 213 3.2 6.4 0.00 0.00 0.00 11 995.2
20260502215850 0 209 1.6 6.4 0.00 0.00 0.00 11 995.2
20260502215403 0 205 0.0 6.4 0.00 0.00 0.00 11 995.3
20260502215350 0 209 1.6 6.4 0.00 0.00 0.00 11 995.3
20260502214851 0 201 1.6 8.0 0.00 0.00 0.00 11 995.3
20260502214712 0 203 1.6 8.0 0.00 0.00 0.00 11 995.3
20260502214503 0 203 1.6 8.0 0.00 0.00 0.00 11 995.4
20260502214351 0 208 1.6 9.7 0.00 0.00 0.00 11 995.4
20260502213744 0 215 3.2 9.7 0.00 0.00 0.00 11 995.2
20260502213603 0 217 4.8 9.7 0.00 0.00 0.00 11 995.1
20260502213244 0 213 3.2 8.0 0.00 0.00 0.00 11 995.2
20260502212744 0 214 3.2 8.0 0.00 0.00 0.00 11 995.2
20260502212712 0 214 3.2 8.0 0.00 0.00 0.00 11 995.2
20260502212703 0 214 3.2 8.0 0.00 0.00 0.00 11 995.2
20260502212244 0 225 4.8 8.0 0.00 0.00 0.00 11 995.3
20260502211803 0 224 3.2 6.4 0.00 0.00 0.00 11 995.2
20260502211743 0 224 3.2 6.4 0.00 0.00 0.00 11 995.2
20260502211243 1 219 1.6 6.4 0.00 0.00 0.00 11 995.4
20260502210903 1 230 3.2 6.4 0.00 0.00 0.00 11 995.4
20260502210743 1 240 1.6 6.4 0.00 0.00 0.00 11 995.2
20260502210711 1 240 1.6 6.4 0.00 0.00 0.00 11 995.2
20260502210243 1 279 1.6 9.7 0.00 0.00 0.00 11 995.4
20260502210003 1 288 1.6 9.7 0.00 0.00 0.00 11 995.3
20260502205743 1 266 3.2 9.7 0.00 0.00 0.00 11 995.2
20260502205403 1 242 3.2 9.7 0.00 0.00 0.00 11 995.2
20260502205243 1 233 3.2 9.7 0.00 0.00 0.00 11 995.3
20260502204743 1 223 4.8 11.3 0.00 0.00 0.00 11 995.3
20260502204711 1 223 4.8 11.3 0.00 0.00 0.00 11 995.3
20260502204503 1 221 3.2 11.3 0.00 0.00 0.00 11 995.3
20260502204243 1 221 3.2 11.3 0.00 0.00 0.00 11 995.2
20260502203743 1 246 6.4 12.9 0.00 0.00 0.00 11 995.4
20260502203603 1 255 6.4 12.9 0.00 0.00 0.00 11 995.3
20260502203243 2 278 4.8 14.5 0.00 0.00 0.00 11 995.3
20260502202743 2 261 8.0 17.7 0.00 0.00 0.00 11 995.4
20260502202711 2 261 8.0 17.7 0.00 0.00 0.00 11 995.4
20260502202703 2 257 8.0 17.7 0.00 0.00 0.00 11 995.4
20260502202243 2 233 6.4 17.7 0.00 0.00 0.00 11 995.3
20260502201803 2 216 8.0 14.5 0.00 0.00 0.00 11 995.1
20260502201743 2 218 4.8 14.5 0.00 0.00 0.00 11 995.2
20260502201243 2 224 3.2 12.9 0.00 0.00 0.00 11 995.3
20260502200903 2 232 3.2 8.0 0.00 0.00 0.00 11 995.3
20260502200743 2 239 3.2 11.3 0.00 0.00 0.00 11 995.2
20260502200711 2 239 3.2 11.3 0.00 0.00 0.00 11 995.2
20260502200243 2 223 3.2 12.9 0.00 0.00 0.00 11 995.1
20260502200003 2 215 3.2 12.9 0.00 0.00 0.00 11 995.1
20260502195743 2 205 3.2 12.9 0.00 0.00 0.00 11 995.1
20260502195403 2 203 3.2 11.3 0.00 0.00 0.00 11 995.2
20260502195243 2 209 4.8 11.3 0.00 0.00 0.00 11 995.2
20260502194743 2 216 1.6 6.4 0.00 0.00 0.00 11 995.2
20260502194711 2 216 1.6 6.4 0.00 0.00 0.00 11 995.2
20260502194503 2 216 3.2 9.7 0.00 0.00 0.00 11 995.2
20260502194243 2 220 3.2 12.9 0.00 0.00 0.00 11 995.2
20260502193743 2 220 3.2 12.9 0.00 0.00 0.00 11 995.2
20260502193603 2 223 3.2 12.9 0.00 0.00 0.00 11 995.3
20260502193244 2 220 4.8 11.3 0.00 0.00 0.00 11 995.3
20260502192744 2 220 3.2 11.3 0.00 0.00 0.00 11 995.3
20260502192712 2 220 3.2 11.3 0.00 0.00 0.00 11 995.3
20260502192703 2 220 3.2 11.3 0.00 0.00 0.00 11 995.3
20260502192244 3 237 3.2 12.9 0.00 0.00 0.00 11 995.2
20260502191803 3 242 3.2 12.9 0.00 0.00 0.00 11 995.2
20260502191744 3 246 4.8 12.9 0.00 0.00 0.00 11 995.1
20260502191244 3 284 3.2 12.9 0.00 0.00 0.00 11 995.0
20260502190903 3 305 3.2 16.1 0.00 0.00 0.00 11 995.1
20260502190744 3 310 3.2 16.1 0.00 0.00 0.00 11 995.1
20260502190712 3 310 3.2 16.1 0.00 0.00 0.00 11 995.1
20260502190244 3 291 6.4 16.1 0.00 0.00 0.00 11 995.0
20260502190003 3 271 6.4 16.1 0.00 0.00 0.00 11 995.0
20260502185744 3 239 3.2 11.3 0.00 0.00 0.00 11 995.0
20260502185403 3 247 6.4 12.9 0.00 0.00 0.00 11 995.0
20260502185244 3 243 1.6 12.9 0.00 0.00 0.00 11 995.0
20260502184744 4 262 4.8 17.7 0.00 0.00 0.00 11 995.0
20260502184712 4 262 4.8 17.7 0.00 0.00 0.00 11 995.0
20260502184503 4 261 8.0 17.7 0.00 0.00 0.00 11 995.0
20260502184244 5 274 4.8 17.7 0.00 0.00 0.00 11 995.0
20260502183744 5 275 3.2 16.1 0.00 0.00 0.00 11 995.1
20260502183603 5 277 8.0 16.1 0.00 0.00 0.00 11 994.9
20260502183244 5 282 4.8 16.1 0.00 0.00 0.00 11 994.9
20260502182712 5 281 6.4 16.1 0.00 0.00 0.00 11 994.9
20260502182703 5 283 6.4 16.1 0.00 0.00 0.00 11 994.9
20260502182632 5 287 11.3 16.1 0.00 0.00 0.00 11 995.0
20260502182132 5 251 8.0 16.1 0.00 0.00 0.00 11 994.9
20260502181803 5 247 3.2 20.9 0.00 0.00 0.00 11 994.8
20260502181632 5 239 8.0 20.9 0.00 0.00 0.00 11 995.0
20260502181132 5 250 6.4 20.9 0.00 0.00 0.00 11 994.9
20260502180903 6 244 6.4 20.9 0.00 0.00 0.00 11 994.8
20260502180712 6 244 3.2 19.3 0.00 0.00 0.00 11 994.9
20260502180632 6 249 6.4 19.3 0.00 0.00 0.00 11 994.9
20260502180132 6 274 6.4 27.4 0.00 0.00 0.00 11 994.6
20260502170133 6 272 6.4 20.9 0.00 0.00 0.00 11 995.0
20260502164133 7 271 8.0 20.9 0.00 0.00 0.00 11 995.0
20260502163633 7 258 11.3 24.1 0.00 0.00 0.00 11 994.9
20260502163603 7 262 11.3 24.1 0.00 0.00 0.00 11 994.9
20260502163133 7 269 8.0 24.1 0.00 0.00 0.00 11 995.1
20260502162711 7 265 6.4 24.1 0.00 0.00 0.00 11 995.0
20260502162703 7 265 6.4 24.1 0.00 0.00 0.00 11 995.0
20260502162633 7 271 11.3 25.7 0.00 0.00 0.00 11 994.8
20260502162133 7 271 11.3 25.7 0.00 0.00 0.00 11 995.0
20260502161803 6 268 6.4 25.7 0.00 0.00 0.00 11 995.0
20260502161633 7 265 11.3 25.7 0.00 0.00 0.00 11 995.0
20260502161133 7 264 4.8 20.9 0.00 0.00 0.00 11 995.1
20260502160903 7 268 9.7 20.9 0.00 0.00 0.00 11 995.0
20260502160711 7 267 12.9 20.9 0.00 0.00 0.00 11 995.0
20260502160632 7 266 12.9 20.9 0.00 0.00 0.00 11 995.1
20260502160132 7 288 12.9 25.7 0.00 0.00 0.00 11 994.9
20260502152132 7 297 12.9 22.5 0.00 0.00 0.00 11 995.0
20260502151803 7 288 9.7 27.4 0.00 0.00 0.00 11 995.2
20260502151632 7 254 6.4 27.4 0.00 0.00 0.00 11 995.0
20260502151132 7 227 6.4 27.4 0.00 0.00 0.00 11 995.0
20260502150903 8 231 9.7 27.4 0.00 0.00 0.00 11 995.0
20260502150712 7 233 12.9 27.4 0.00 0.00 0.00 11 995.1
20260502150632 7 237 12.9 27.4 0.00 0.00 0.00 11 995.1
20260502150132 7 251 12.9 27.4 0.00 0.00 0.00 11 995.1
20260502130711 8 272 12.9 24.1 0.00 0.00 0.00 11 994.9
20260502130633 8 269 12.9 25.7 0.00 0.00 0.00 11 994.9
20260502130133 8 287 12.9 33.8 0.00 0.00 0.00 11 994.9
20260502123632 7 336 8.0 33.8 0.00 0.00 0.00 11 994.6
20260502123603 7 336 8.0 33.8 0.00 0.00 0.00 11 994.6
20260502123132 7 354 12.9 33.8 0.00 0.00 0.00 11 994.8
20260502122712 7 352 17.7 33.8 0.00 0.00 0.00 11 994.6
20260502122703 7 352 17.7 33.8 0.00 0.00 0.00 11 994.6
20260502122632 7 356 20.9 33.8 0.00 0.00 0.00 11 994.8
20260502122132 7 353 14.5 27.4 0.00 0.00 0.00 11 994.7
20260502121803 7 355 16.1 29.0 0.00 0.00 0.00 11 994.7
20260502121632 7 344 16.1 29.0 0.00 0.00 0.00 11 994.7
20260502121132 7 342 9.7 29.0 0.00 0.00 0.00 11 994.6
20260502120904 7 337 19.3 29.0 0.00 0.00 0.00 11 994.7
20260502120712 8 335 12.9 24.1 0.00 0.00 0.00 11 994.5
20260502120632 8 331 11.3 30.6 0.00 0.00 0.00 11 994.5
20260502120132 9 305 9.7 30.6 0.00 0.00 0.00 11 994.5
20260502115632 8 304 12.9 30.6 0.00 0.00 0.00 11 994.5
20260502115403 8 304 6.4 27.4 0.00 0.00 0.00 11 994.6
20260502115132 9 308 11.3 27.4 0.00 0.00 0.00 11 994.6
20260502114712 8 327 14.5 27.4 0.00 0.00 0.00 11 994.4
20260502114632 8 336 9.7 27.4 0.00 0.00 0.00 11 994.3
20260502114503 8 341 9.7 25.7 0.00 0.00 0.00 11 994.3
20260502114132 8 349 9.7 25.7 0.00 0.00 0.00 11 994.3
20260502113632 8 344 9.7 25.7 0.00 0.00 0.00 11 994.4
20260502113603 8 344 9.7 25.7 0.00 0.00 0.00 11 994.4
20260502113132 8 340 14.5 24.1 0.00 0.00 0.00 11 994.5
20260502112712 8 322 11.3 27.4 0.00 0.00 0.00 11 994.4
20260502112703 8 322 11.3 27.4 0.00 0.00 0.00 11 994.4
20260502112632 8 322 11.3 27.4 0.00 0.00 0.00 11 994.5
20260502112132 8 304 11.3 33.8 0.00 0.00 0.00 11 994.6
20260502111803 8 279 11.3 33.8 0.00 0.00 0.00 11 994.6
20260502111633 8 257 6.4 33.8 0.00 0.00 0.00 11 994.6
20260502111132 9 222 14.5 33.8 0.00 0.00 0.00 11 994.6
20260502110903 9 212 20.9 33.8 0.00 0.00 0.00 11 994.4
20260502110712 9 221 19.3 33.8 0.00 0.00 0.00 11 994.3
20260502110632 9 218 11.3 33.8 0.00 0.00 0.00 11 994.3
20260502110133 9 251 8.0 37.0 0.00 0.00 0.00 11 994.3
20260502110004 9 258 8.0 37.0 0.00 0.00 0.00 11 994.4
20260502105632 9 254 14.5 37.0 0.00 0.00 0.00 11 994.4
20260502105403 10 243 20.9 37.0 0.00 0.00 0.00 11 994.3
20260502105132 10 237 11.3 33.8 0.00 0.00 0.00 11 994.2
20260502104712 10 260 19.3 33.8 0.00 0.00 0.00 11 994.3
20260502104632 10 272 14.5 29.0 0.00 0.00 0.00 11 994.3
20260502104503 10 287 6.4 27.4 0.00 0.00 0.00 11 994.3
20260502104134 8 309 11.3 27.4 0.00 0.00 0.00 11 994.3
20260502103632 7 326 12.9 24.1 0.00 0.00 0.00 11 994.0
20260502103603 7 326 12.9 24.1 0.00 0.00 0.00 11 994.0
20260502103536 7 326 12.9 17.7 0.00 0.00 0.00 11 994.2
20260502103036 7 349 6.4 22.5 0.00 0.00 0.00 11 994.0
20260502102712 7 345 11.3 22.5 0.00 0.00 0.00 11 994.1
20260502102703 7 345 11.3 22.5 0.00 0.00 0.00 11 994.1
20260502102538 7 344 9.7 22.5 0.00 0.00 0.00 11 994.2
20260502102038 8 283 16.1 27.4 0.00 0.00 0.00 11 994.4
20260502101803 8 269 11.3 27.4 0.00 0.00 0.00 11 994.3
20260502101536 8 253 9.7 27.4 0.00 0.00 0.00 11 994.3
20260502101038 10 231 11.3 25.7 0.00 0.00 0.00 11 994.1
20260502100903 10 224 6.4 25.7 0.00 0.00 0.00 11 994.2
20260502100712 10 220 11.3 27.4 0.00 0.00 0.00 11 994.3
20260502100538 9 230 6.4 29.0 0.00 0.00 0.00 11 994.2
20260502091037 8 263 4.8 17.7 0.00 0.00 0.00 11 994.1
20260502090903 8 261 6.4 17.7 0.00 0.00 0.00 11 993.9
20260502090713 8 255 8.0 22.5 0.00 0.00 0.00 11 993.9
20260502090537 8 243 6.4 22.5 0.00 0.00 0.00 11 993.9